{"data":{"norad_id":62448,"epoch":"2026-09-21T22:57:23.582016Z","epoch_age_seconds":48847,"freshness":"FRESH","line1":"1 62448U 24251S   26264.95652294  .00018685  00000+0  56279-3 0  9999","line2":"2 62448  53.1579 140.9725 0001213  87.6918 272.4223 15.34398488 97865","mean_motion":15.34398488,"eccentricity":0.0001213,"inclination_deg":53.1579,"raan_deg":140.9725,"arg_perigee_deg":87.6918,"mean_anomaly_deg":272.4223,"bstar":0.00056279,"rev_number":9786,"period_min":93.847850559144,"perigee_km":461.87793972718,"apogee_km":463.53752865969,"semimajor_km":6840.8447341934,"source":"CELESTRAK","updated_at":"2026-09-22T09:00:49.583005Z"}}